Flag for Canada Weather past 2 weeks in Rankin Inlet, Nunavut Territory, Canada

Now
-8 °F

Snow flurries. Clear.


Feels Like: -30 °F
Forecast: -9 / 11 °F
Wind: 16 mph from North

Location: Rankin Inlet

Current Time: Dec 20, 2014 at 1:42:37 AM

Latest Report: Dec 20, 2014 at 1:00 AM


Visibility: 15 mi

Pressure: 29.89 "Hg

Humidity: 77%

Dew point: -13 °F

Location of Rankin InletLocation

Historic Weather in Rankin Inlet — Graph

°F

Rankin Inlet temperature yesterday

Maximum temperature yesterday: 9 °F (at 6:00 AM)
Minimum temperature yesterday: -4 °F (at 11:00 PM)
Average temperature yesterday: 6 °F

Past Weeks' High & Low Weather Summary

 TemperatureHumidityPressure
High16 °F (Dec 10, 7:00 PM)92% (Dec 9, 9:00 PM)30.45 "Hg (Dec 9, 9:00 PM)
Low-26 °F (Dec 6, 2:00 AM)61% (Dec 6, 5:00 AM)29.31 "Hg (Dec 10, 8:00 PM)
Average-5 °F77%29.99 "Hg
* Reported Midnight between Dec 4 and Dec 5 — Midnight between Dec 19 and Dec 20, Rankin Inlet, Weather by CustomWeather, © 2014

Note: Actual official high and low records may vary slightly from our data, if they occured in-between our weather recording intervals... More about our weather records

Advertising

Rankin Inlet weather history for previous 24 hours

 ConditionsComfort  
Time TempWeatherWind HumidityBarometerVisibility
12:00 AM
Dec 20
-8 °FSnow flurries. Clear.15 mph84%29.88 "Hg15 mi
11:00 PM
Dec 19
-4 °FSnow flurries. Passing clouds.13 mph77%29.86 "Hg15 mi
10:00 PM-2 °FLight snow. Passing clouds.13 mph84%29.85 "Hg15 mi
9:00 PM1 °FLight snow. Overcast.9 mph85%29.84 "Hg15 mi
8:00 PM7 °FLight snow. Overcast.8 mph85%29.84 "Hg10 mi
7:00 PM7 °FLight snow. Overcast.7 mph85%29.83 "Hg10 mi
6:00 PM7 °FLight snow. Overcast.5 mph78%29.84 "Hg6 mi
5:00 PM7 °FLight snow. Overcast.5 mph85%29.83 "Hg8 mi
4:00 PM7 °FLight snow. Overcast.5 mph85%29.83 "Hg6 mi
3:00 PM7 °FLight snow. Overcast.No wind85%29.83 "Hg10 mi
2:00 PM7 °FLight snow. Overcast.3 mph85%29.83 "Hg6 mi
1:00 PM7 °FLight snow. Overcast.8 mph85%29.83 "Hg6 mi
12:00 PM7 °FLight snow. Overcast.9 mph85%29.84 "Hg10 mi
11:00 AM7 °FLight snow. Overcast.8 mph85%29.85 "Hg10 mi
10:00 AM7 °FLight snow. Low clouds.9 mph85%29.87 "Hg10 mi
9:00 AM7 °FLight snow. Overcast.12 mph78%29.88 "Hg10 mi
8:00 AM7 °FLight snow. Overcast.14 mph78%29.90 "Hg12 mi
7:00 AM7 °FLight snow. Overcast.16 mph85%29.90 "Hg12 mi
6:00 AM9 °FLight snow. Overcast.18 mph85%29.91 "Hg10 mi
5:00 AM7 °FLight snow. Overcast.17 mph85%29.93 "Hg10 mi
4:00 AM7 °FLight snow. Overcast.16 mph85%29.95 "Hg10 mi
3:00 AM7 °FLight snow. Overcast.21 mph85%29.95 "Hg8 mi
2:49 AM7 °FLight snow. Overcast.22 mph85%29.95 "Hg8 mi
2:00 AM7 °FLight snow. Low clouds.17 mph85%29.98 "Hg8 mi
1:00 AM7 °FLight snow. Low clouds.17 mph85%29.99 "Hg8 mi
Weather by CustomWeather, © 2014

See weather overviewHow to use our weather pages